| time (UTC) | temp F | wind direction | speed MPH | gust MPH | rain 1hr in | rain 24hr in | rain mn in | humidity % | barometer mb |
| 20260906102519 | 0 | 0.0 | 0.0 | 0.00 | 0.00 | 0.00 | 1013.6 | ||
| 20260906102023 | 0 | 0.0 | 0.0 | 0.00 | 0.00 | 0.00 | 1013.6 | ||
| 20260906101533 | 0 | 0.0 | 0.0 | 0.00 | 0.00 | 0.00 | 1013.5 | ||
| 20260906101019 | 0 | 0.0 | 0.0 | 0.00 | 0.00 | 0.00 | 1013.4 | ||
| 20260906100523 | 0 | 0.0 | 0.0 | 0.00 | 0.00 | 0.00 | 1013.4 | ||
| 20260906100034 | 0 | 0.0 | 0.0 | 0.00 | 0.00 | 0.00 | 1013.5 | ||
| 20260906095517 | 0 | 0.0 | 0.0 | 0.00 | 0.00 | 0.00 | 1013.4 | ||
| 20260906095016 | 0 | 0.0 | 0.0 | 0.00 | 0.00 | 0.00 | 1013.4 | ||
| 20260906094532 | 0 | 0.0 | 0.0 | 0.00 | 0.00 | 0.00 | 1013.4 | ||
| 20260906094014 | 0 | 0.0 | 0.0 | 0.00 | 0.00 | 0.00 | 1013.4 | ||
| 20260906093519 | 0 | 0.0 | 0.0 | 0.00 | 0.00 | 0.00 | 1013.4 | ||
| 20260906093038 | 0 | 0.0 | 0.0 | 0.00 | 0.00 | 0.00 | 1013.3 | ||
| 20260906092518 | 0 | 0.0 | 0.0 | 0.00 | 0.00 | 0.00 | 1013.2 | ||
| 20260906092024 | 0 | 0.0 | 0.0 | 0.00 | 0.00 | 0.00 | 1013.1 | ||
| 20260906091533 | 0 | 0.0 | 0.0 | 0.00 | 0.00 | 0.00 | 1013.1 | ||
| 20260906091017 | 0 | 0.0 | 0.0 | 0.00 | 0.00 | 0.00 | 1013.1 | ||
| 20260906090519 | 0 | 0.0 | 0.0 | 0.00 | 0.00 | 0.00 | 1013.2 | ||
| 20260906090052 | 0 | 0.0 | 0.0 | 0.00 | 0.00 | 0.00 | 1013.1 | ||
| 20260906085518 | 0 | 0.0 | 3.0 | 0.00 | 0.00 | 0.00 | 1013.1 | ||
| 20260906085009 | 74 | 26 | 1.0 | 3.0 | 0.00 | 0.00 | 0.00 | 91 | 1013.1 |
| 20260906084517 | 74 | 28 | 0.0 | 3.0 | 0.00 | 0.00 | 0.00 | 90 | 1013.0 |
| 20260906084011 | 74 | 352 | 1.0 | 3.0 | 0.00 | 0.00 | 0.00 | 90 | 1012.9 |
| 20260906083510 | 74 | 36 | 0.0 | 2.0 | 0.00 | 0.00 | 0.00 | 90 | 1013.0 |
| 20260906083026 | 74 | 47 | 0.0 | 2.0 | 0.00 | 0.00 | 0.00 | 90 | 1013.0 |
| 20260906082511 | 74 | 9 | 0.0 | 3.0 | 0.00 | 0.00 | 0.00 | 90 | 1013.0 |
| 20260906082016 | 74 | 360 | 0.0 | 3.0 | 0.00 | 0.00 | 0.00 | 90 | 1012.9 |
| 20260906081526 | 74 | 22 | 0.0 | 5.0 | 0.00 | 0.00 | 0.00 | 89 | 1012.9 |
| 20260906081013 | 74 | 21 | 2.0 | 5.0 | 0.00 | 0.00 | 0.00 | 89 | 1012.8 |
| 20260906080518 | 74 | 360 | 1.0 | 4.0 | 0.00 | 0.00 | 0.00 | 89 | 1012.8 |
| 20260906080010 | 75 | 329 | 1.0 | 5.0 | 0.00 | 0.00 | 0.00 | 89 | 1012.7 |
| 20260906075505 | 75 | 46 | 2.0 | 5.0 | 0.00 | 0.00 | 0.00 | 88 | 1012.7 |
| 20260906075009 | 75 | 346 | 1.0 | 3.0 | 0.00 | 0.00 | 0.00 | 88 | 1012.7 |
| 20260906074515 | 75 | 350 | 2.0 | 3.0 | 0.00 | 0.00 | 0.00 | 88 | 1012.7 |
| 20260906074010 | 75 | 342 | 2.0 | 4.0 | 0.00 | 0.00 | 0.00 | 87 | 1012.7 |
| 20260906073513 | 75 | 346 | 1.0 | 4.0 | 0.00 | 0.00 | 0.00 | 87 | 1012.7 |
| 20260906073020 | 75 | 295 | 1.0 | 4.0 | 0.00 | 0.00 | 0.00 | 87 | 1012.7 |
| 20260906072512 | 76 | 350 | 2.0 | 5.0 | 0.00 | 0.00 | 0.00 | 87 | 1012.8 |
| 20260906072017 | 76 | 338 | 1.0 | 5.0 | 0.00 | 0.00 | 0.00 | 87 | 1012.8 |
| 20260906071524 | 76 | 348 | 2.0 | 3.0 | 0.00 | 0.00 | 0.00 | 86 | 1012.8 |
| 20260906071014 | 76 | 9 | 1.0 | 4.0 | 0.00 | 0.00 | 0.00 | 86 | 1012.8 |
| 20260906070515 | 76 | 352 | 1.0 | 4.0 | 0.00 | 0.00 | 0.00 | 86 | 1012.9 |
| 20260906070036 | 76 | 21 | 2.0 | 3.0 | 0.00 | 0.00 | 0.00 | 86 | 1012.9 |
| 20260906065515 | 76 | 351 | 0.0 | 4.0 | 0.00 | 0.00 | 0.00 | 86 | 1012.8 |
| 20260906065008 | 77 | 17 | 2.0 | 4.0 | 0.00 | 0.00 | 0.00 | 85 | 1012.9 |
| 20260906064512 | 77 | 5 | 1.0 | 3.0 | 0.00 | 0.00 | 0.00 | 85 | 1013.0 |
| 20260906064012 | 77 | 31 | 1.0 | 3.0 | 0.00 | 0.00 | 0.00 | 85 | 1012.9 |
| 20260906063509 | 77 | 343 | 1.0 | 3.0 | 0.00 | 0.00 | 0.00 | 85 | 1013.0 |
| 20260906063038 | 78 | 309 | 0.0 | 0.0 | 0.00 | 0.00 | 0.00 | 85 | 1013.0 |
| 20260906062512 | 78 | 314 | 0.0 | 3.0 | 0.00 | 0.00 | 0.00 | 84 | 1013.0 |
| 20260906062012 | 78 | 19 | 1.0 | 3.0 | 0.00 | 0.00 | 0.00 | 84 | 1013.1 |
| 20260906061526 | 78 | 350 | 0.0 | 2.0 | 0.00 | 0.00 | 0.00 | 83 | 1013.1 |
| 20260906061015 | 78 | 53 | 0.0 | 2.0 | 0.00 | 0.00 | 0.00 | 83 | 1013.1 |
| 20260906060514 | 79 | 250 | 0.0 | 2.0 | 0.00 | 0.00 | 0.00 | 83 | 1013.2 |
| 20260906060031 | 79 | 10 | 0.0 | 2.0 | 0.00 | 0.00 | 0.00 | 83 | 1013.2 |
| 20260906055519 | 79 | 352 | 0.0 | 4.0 | 0.00 | 0.00 | 0.00 | 83 | 1013.3 |
| 20260906055004 | 79 | 352 | 1.0 | 4.0 | 0.00 | 0.00 | 0.00 | 82 | 1013.3 |
| 20260906054511 | 79 | 9 | 0.0 | 2.0 | 0.00 | 0.00 | 0.00 | 82 | 1013.3 |
| 20260906054006 | 79 | 5 | 0.0 | 3.0 | 0.00 | 0.00 | 0.00 | 82 | 1013.3 |
| 20260906053510 | 80 | 31 | 1.0 | 3.0 | 0.00 | 0.00 | 0.00 | 82 | 1013.3 |
| 20260906053015 | 80 | 5 | 1.0 | 4.0 | 0.00 | 0.00 | 0.00 | 81 | 1013.3 |
| 20260906052513 | 80 | 5 | 0.0 | 5.0 | 0.00 | 0.00 | 0.00 | 81 | 1013.4 |
| 20260906052016 | 80 | 344 | 1.0 | 5.0 | 0.00 | 0.00 | 0.00 | 81 | 1013.4 |
| 20260906051543 | 80 | 13 | 2.0 | 4.0 | 0.00 | 0.00 | 0.00 | 81 | 1013.3 |
| 20260906051012 | 80 | 34 | 1.0 | 4.0 | 0.00 | 0.00 | 0.00 | 81 | 1013.3 |
| 20260906050514 | 81 | 351 | 0.0 | 3.0 | 0.00 | 0.00 | 0.00 | 81 | 1013.2 |
| 20260906050035 | 81 | 38 | 1.0 | 3.0 | 0.00 | 0.00 | 0.00 | 81 | 1013.2 |
| 20260906045504 | 81 | 19 | 0.0 | 2.0 | 0.00 | 0.00 | 0.00 | 80 | 1013.1 |
| 20260906045005 | 81 | 9 | 0.0 | 2.0 | 0.00 | 0.00 | 0.00 | 80 | 1013.0 |
| 20260906044510 | 81 | 9 | 0.0 | 3.0 | 0.00 | 0.00 | 0.00 | 80 | 1013.0 |
| 20260906044013 | 81 | 348 | 1.0 | 4.0 | 0.00 | 0.00 | 0.00 | 80 | 1012.9 |
| 20260906043510 | 82 | 10 | 0.0 | 4.0 | 0.00 | 0.00 | 0.00 | 79 | 1012.9 |
| 20260906043038 | 82 | 352 | 0.0 | 4.0 | 0.00 | 0.00 | 0.00 | 79 | 1012.9 |
| 20260906042507 | 82 | 15 | 1.0 | 5.0 | 0.00 | 0.00 | 0.00 | 79 | 1012.8 |
| 20260906042012 | 82 | 346 | 2.0 | 5.0 | 0.00 | 0.00 | 0.00 | 79 | 1012.7 |
| 20260906041520 | 82 | 329 | 0.0 | 6.0 | 0.00 | 0.00 | 0.00 | 79 | 1012.6 |
| 20260906041015 | 82 | 5 | 1.0 | 6.0 | 0.00 | 0.00 | 0.00 | 79 | 1012.5 |
| 20260906040511 | 82 | 352 | 2.0 | 9.0 | 0.00 | 0.00 | 0.00 | 79 | 1012.6 |
| 20260906040035 | 82 | 28 | 3.0 | 9.0 | 0.00 | 0.00 | 0.00 | 79 | 1012.7 |
| 20260906035513 | 83 | 30 | 2.0 | 6.0 | 0.00 | 0.00 | 0.00 | 79 | 1012.7 |
| 20260906035017 | 83 | 335 | 0.0 | 6.0 | 0.00 | 0.00 | 0.00 | 79 | 1012.7 |
| 20260906034508 | 83 | 352 | 1.0 | 5.0 | 0.00 | 0.00 | 0.00 | 79 | 1012.7 |
| 20260906034010 | 83 | 59 | 2.0 | 4.0 | 0.00 | 0.00 | 0.00 | 79 | 1012.7 |
| 20260906033508 | 83 | 35 | 1.0 | 2.0 | 0.00 | 0.00 | 0.00 | 79 | 1012.7 |
| 20260906033011 | 83 | 69 | 0.0 | 3.0 | 0.00 | 0.00 | 0.00 | 78 | 1012.5 |
| 20260906032510 | 83 | 352 | 0.0 | 3.0 | 0.00 | 0.00 | 0.00 | 78 | 1012.5 |
| 20260906032011 | 83 | 69 | 1.0 | 3.0 | 0.00 | 0.00 | 0.00 | 78 | 1012.5 |
| 20260906031517 | 83 | 360 | 0.0 | 2.0 | 0.00 | 0.00 | 0.00 | 77 | 1012.5 |
| 20260906031012 | 84 | 16 | 0.0 | 2.0 | 0.00 | 0.00 | 0.00 | 77 | 1012.4 |
| 20260906030513 | 84 | 84 | 0.0 | 3.0 | 0.00 | 0.00 | 0.00 | 76 | 1012.3 |
| 20260906030025 | 84 | 57 | 0.0 | 3.0 | 0.00 | 0.00 | 0.00 | 76 | 1012.3 |
| 20260906025520 | 84 | 352 | 0.0 | 3.0 | 0.00 | 0.00 | 0.00 | 75 | 1012.3 |
| 20260906025013 | 84 | 44 | 0.0 | 4.0 | 0.00 | 0.00 | 0.00 | 74 | 1012.2 |
| 20260906024530 | 84 | 113 | 2.0 | 7.0 | 0.00 | 0.00 | 0.00 | 74 | 1012.1 |
| 20260906024017 | 84 | 17 | 4.0 | 8.0 | 0.00 | 0.00 | 0.00 | 74 | 1012.1 |
| 20260906023508 | 83 | 13 | 3.0 | 8.0 | 0.00 | 0.00 | 0.00 | 75 | 1012.0 |
| 20260906023011 | 82 | 360 | 0.0 | 2.0 | 0.00 | 0.00 | 0.00 | 74 | 1012.0 |
| 20260906022507 | 82 | 9 | 0.0 | 0.0 | 0.00 | 0.00 | 0.00 | 74 | 1011.9 |
| 20260906022008 | 82 | 9 | 0.0 | 0.0 | 0.00 | 0.00 | 0.00 | 73 | 1011.8 |
| 20260906021515 | 83 | 9 | 0.0 | 0.0 | 0.00 | 0.00 | 0.00 | 72 | 1011.6 |
| 20260906021012 | 83 | 9 | 0.0 | 0.0 | 0.00 | 0.00 | 0.00 | 72 | 1011.6 |
| 20260906020514 | 83 | 9 | 0.0 | 0.0 | 0.00 | 0.00 | 0.00 | 71 | 1011.6 |
| 20260906020023 | 83 | 9 | 0.0 | 0.0 | 0.00 | 0.00 | 0.00 | 70 | 1011.6 |
| 20260906015512 | 83 | 9 | 0.0 | 0.0 | 0.00 | 0.00 | 0.00 | 71 | 1011.6 |
| 20260906015018 | 84 | 9 | 0.0 | 0.0 | 0.00 | 0.00 | 0.00 | 71 | 1011.6 |
| 20260906014530 | 84 | 9 | 0.0 | 0.0 | 0.00 | 0.00 | 0.00 | 70 | 1011.5 |
| 20260906014013 | 84 | 136 | 0.0 | 0.0 | 0.00 | 0.00 | 0.00 | 69 | 1011.4 |
| 20260906013516 | 85 | 136 | 0.0 | 0.0 | 0.00 | 0.00 | 0.00 | 68 | 1011.4 |
| 20260906013052 | 85 | 136 | 0.0 | 0.0 | 0.00 | 0.00 | 0.00 | 67 | 1011.4 |
| 20260906012507 | 85 | 136 | 0.0 | 0.0 | 0.00 | 0.00 | 0.00 | 67 | 1011.3 |
| 20260906012008 | 85 | 136 | 0.0 | 0.0 | 0.00 | 0.00 | 0.00 | 67 | 1011.3 |
| 20260906011512 | 85 | 136 | 0.0 | 0.0 | 0.00 | 0.00 | 0.00 | 66 | 1011.2 |
| 20260906011016 | 86 | 136 | 0.0 | 0.0 | 0.00 | 0.00 | 0.00 | 66 | 1011.1 |
| 20260906010511 | 86 | 136 | 0.0 | 0.0 | 0.00 | 0.00 | 0.00 | 66 | 1011.1 |
| 20260906010020 | 86 | 132 | 0.0 | 0.0 | 0.00 | 0.00 | 0.00 | 66 | 1011.1 |
| 20260906005520 | 86 | 78 | 0.0 | 0.0 | 0.00 | 0.00 | 0.00 | 66 | 1011.1 |
| 20260906005020 | 87 | 205 | 0.0 | 2.0 | 0.00 | 0.00 | 0.00 | 65 | 1011.1 |
| 20260906004527 | 87 | 280 | 0.0 | 4.0 | 0.00 | 0.00 | 0.00 | 64 | 1011.1 |
| 20260906004024 | 87 | 241 | 0.0 | 4.0 | 0.00 | 0.00 | 0.00 | 64 | 1011.1 |
| 20260906003514 | 87 | 162 | 1.0 | 4.0 | 0.00 | 0.00 | 0.00 | 64 | 1011.1 |
| 20260906003035 | 87 | 346 | 1.0 | 4.0 | 0.00 | 0.00 | 0.00 | 64 | 1011.1 |
| 20260906002521 | 88 | 65 | 0.0 | 0.0 | 0.00 | 0.00 | 0.00 | 62 | 1011.1 |
| 20260906002019 | 90 | 88 | 0.0 | 0.0 | 0.00 | 0.00 | 0.00 | 60 | 1011.2 |
| 20260906001510 | 91 | 47 | 0.0 | 0.0 | 0.00 | 0.00 | 0.00 | 58 | 1011.1 |
| 20260906001011 | 91 | 27 | 0.0 | 1.0 | 0.00 | 0.00 | 0.00 | 57 | 1011.1 |
| 20260906000511 | 92 | 18 | 0.0 | 4.0 | 0.00 | 0.00 | 0.00 | 56 | 1011.0 |
| 20260906000019 | 92 | 26 | 0.0 | 4.0 | 0.00 | 0.00 | 0.00 | 56 | 1011.0 |
| 20260905235511 | 92 | 28 | 0.0 | 4.0 | 0.00 | 0.00 | 0.00 | 55 | 1011.1 |
| 20260905235010 | 93 | 352 | 0.0 | 3.0 | 0.00 | 0.00 | 0.00 | 55 | 1011.1 |
| 20260905234523 | 93 | 344 | 2.0 | 4.0 | 0.00 | 0.00 | 0.00 | 54 | 1011.1 |
| 20260905234016 | 93 | 55 | 0.0 | 5.0 | 0.00 | 0.00 | 0.00 | 54 | 1011.0 |
| 20260905233514 | 93 | 352 | 1.0 | 5.0 | 0.00 | 0.00 | 0.00 | 53 | 1011.0 |
| 20260905233039 | 94 | 29 | 3.0 | 6.0 | 0.00 | 0.00 | 0.00 | 52 | 1010.9 |
| 20260905232515 | 94 | 22 | 2.0 | 7.0 | 0.00 | 0.00 | 0.00 | 51 | 1010.9 |
| 20260905232021 | 95 | 32 | 2.0 | 7.0 | 0.00 | 0.00 | 0.00 | 51 | 1010.8 |
| 20260905231531 | 95 | 24 | 1.0 | 10.0 | 0.00 | 0.00 | 0.00 | 51 | 1010.8 |
| 20260905231018 | 96 | 24 | 2.0 | 10.0 | 0.00 | 0.00 | 0.00 | 50 | 1010.7 |
| 20260905230509 | 96 | 21 | 1.0 | 5.0 | 0.00 | 0.00 | 0.00 | 50 | 1010.7 |
| 20260905230021 | 96 | 9 | 1.0 | 5.0 | 0.00 | 0.00 | 0.00 | 49 | 1010.7 |
| 20260905225511 | 96 | 11 | 1.0 | 8.0 | 0.00 | 0.00 | 0.00 | 48 | 1010.6 |
| 20260905225012 | 96 | 22 | 1.0 | 11.0 | 0.00 | 0.00 | 0.00 | 49 | 1010.6 |
| 20260905224524 | 97 | 341 | 3.0 | 11.0 | 0.00 | 0.00 | 0.00 | 48 | 1010.6 |
| 20260905224012 | 97 | 346 | 3.0 | 14.0 | 0.00 | 0.00 | 0.00 | 49 | 1010.5 |
| 20260905223511 | 97 | 58 | 2.0 | 14.0 | 0.00 | 0.00 | 0.00 | 48 | 1010.4 |
| 20260905223029 | 97 | 327 | 4.0 | 14.0 | 0.00 | 0.00 | 0.00 | 46 | 1010.4 |
| 20260905222516 | 97 | 350 | 5.0 | 9.0 | 0.00 | 0.00 | 0.00 | 45 | 1010.4 |
| 20260905222022 | 98 | 273 | 4.0 | 8.0 | 0.00 | 0.00 | 0.00 | 44 | 1010.4 |
| 20260905221530 | 98 | 327 | 3.0 | 9.0 | 0.00 | 0.00 | 0.00 | 44 | 1010.4 |
| 20260905221019 | 98 | 263 | 4.0 | 9.0 | 0.00 | 0.00 | 0.00 | 44 | 1010.4 |
| 20260905220517 | 98 | 279 | 3.0 | 8.0 | 0.00 | 0.00 | 0.00 | 45 | 1010.4 |
| 20260905220033 | 98 | 352 | 4.0 | 8.0 | 0.00 | 0.00 | 0.00 | 44 | 1010.3 |
| 20260905215511 | 98 | 24 | 3.0 | 8.0 | 0.00 | 0.00 | 0.00 | 44 | 1010.3 |
| 20260905215013 | 98 | 298 | 2.0 | 9.0 | 0.00 | 0.00 | 0.00 | 45 | 1010.3 |
| 20260905214521 | 98 | 332 | 1.0 | 10.0 | 0.00 | 0.00 | 0.00 | 45 | 1010.4 |
| 20260905214014 | 98 | 55 | 4.0 | 10.0 | 0.00 | 0.00 | 0.00 | 45 | 1010.3 |
| 20260905213514 | 98 | 331 | 3.0 | 7.0 | 0.00 | 0.00 | 0.00 | 46 | 1010.3 |
| 20260905213028 | 97 | 343 | 2.0 | 8.0 | 0.00 | 0.00 | 0.00 | 45 | 1010.3 |
| 20260905212513 | 98 | 327 | 3.0 | 9.0 | 0.00 | 0.00 | 0.00 | 45 | 1010.3 |
| 20260905212017 | 98 | 77 | 2.0 | 9.0 | 0.00 | 0.00 | 0.00 | 48 | 1010.3 |
| 20260905211528 | 98 | 320 | 2.0 | 7.0 | 0.00 | 0.00 | 0.00 | 47 | 1010.4 |
| 20260905211014 | 98 | 328 | 2.0 | 10.0 | 0.00 | 0.00 | 0.00 | 48 | 1010.5 |
| 20260905210520 | 99 | 316 | 3.0 | 13.0 | 0.00 | 0.00 | 0.00 | 43 | 1010.5 |
| 20260905210045 | 99 | 339 | 3.0 | 13.0 | 0.00 | 0.00 | 0.00 | 43 | 1010.6 |
| 20260905205518 | 99 | 252 | 8.0 | 11.0 | 0.00 | 0.00 | 0.00 | 43 | 1010.5 |
| 20260905205010 | 99 | 240 | 3.0 | 10.0 | 0.00 | 0.00 | 0.00 | 44 | 1010.6 |
| 20260905204516 | 99 | 10 | 4.0 | 10.0 | 0.00 | 0.00 | 0.00 | 45 | 1010.6 |
| 20260905204011 | 98 | 334 | 1.0 | 5.0 | 0.00 | 0.00 | 0.00 | 45 | 1010.6 |
| 20260905203511 | 97 | 24 | 2.0 | 4.0 | 0.00 | 0.00 | 0.00 | 47 | 1010.5 |
| 20260905203024 | 96 | 331 | 2.0 | 3.0 | 0.00 | 0.00 | 0.00 | 50 | 1010.6 |
| 20260905202503 | 96 | 352 | 0.0 | 2.0 | 0.00 | 0.00 | 0.00 | 50 | 1010.8 |
| 20260905202003 | 96 | 11 | 0.0 | 14.0 | 0.00 | 0.00 | 0.00 | 50 | 1011.0 |
| 20260905201504 | 97 | 36 | 2.0 | 14.0 | 0.00 | 0.00 | 0.00 | 48 | 1011.1 |
| 20260905201006 | 98 | 310 | 2.0 | 6.0 | 0.00 | 0.00 | 0.00 | 45 | 1011.1 |
| 20260905200504 | 99 | 333 | 3.0 | 6.0 | 0.00 | 0.00 | 0.00 | 44 | 1011.1 |
| 20260905200007 | 99 | 309 | 1.0 | 10.0 | 0.00 | 0.00 | 0.00 | 47 | 1011.1 |
| 20260905195508 | 98 | 13 | 2.0 | 10.0 | 0.00 | 0.00 | 0.00 | 46 | 1011.2 |
| 20260905195008 | 98 | 276 | 3.0 | 10.0 | 0.00 | 0.00 | 0.00 | 44 | 1011.3 |
| 20260905194513 | 97 | 290 | 2.0 | 7.0 | 0.00 | 0.00 | 0.00 | 44 | 1011.3 |
| 20260905194011 | 98 | 317 | 3.0 | 7.0 | 0.00 | 0.00 | 0.00 | 44 | 1011.2 |
| 20260905193512 | 98 | 70 | 1.0 | 5.0 | 0.00 | 0.00 | 0.00 | 46 | 1011.3 |
| 20260905193022 | 98 | 280 | 1.0 | 7.0 | 0.00 | 0.00 | 0.00 | 45 | 1011.5 |
| 20260905192512 | 98 | 75 | 0.0 | 7.0 | 0.00 | 0.00 | 0.00 | 46 | 1011.4 |
| 20260905192013 | 99 | 24 | 2.0 | 5.0 | 0.00 | 0.00 | 0.00 | 45 | 1011.5 |
| 20260905191504 | 97 | 295 | 0.0 | 9.0 | 0.00 | 0.00 | 0.00 | 46 | 1011.6 |
| 20260905191004 | 96 | 312 | 1.0 | 9.0 | 0.00 | 0.00 | 0.00 | 46 | 1011.7 |
| 20260905190504 | 97 | 285 | 2.0 | 7.0 | 0.00 | 0.00 | 0.00 | 47 | 1011.8 |
| 20260905190008 | 97 | 352 | 0.0 | 3.0 | 0.00 | 0.00 | 0.00 | 47 | 1011.8 |
| 20260905185508 | 97 | 23 | 1.0 | 7.0 | 0.00 | 0.00 | 0.00 | 47 | 1011.9 |
| 20260905185012 | 98 | 350 | 3.0 | 7.0 | 0.00 | 0.00 | 0.00 | 47 | 1012.0 |
| 20260905184518 | 98 | 342 | 1.0 | 6.0 | 0.00 | 0.00 | 0.00 | 46 | 1012.0 |
| 20260905184010 | 97 | 324 | 1.0 | 8.0 | 0.00 | 0.00 | 0.00 | 46 | 1012.1 |
| 20260905183508 | 98 | 99 | 4.0 | 8.0 | 0.00 | 0.00 | 0.00 | 47 | 1012.2 |
| 20260905183017 | 98 | 315 | 1.0 | 5.0 | 0.00 | 0.00 | 0.00 | 46 | 1012.2 |
| 20260905182512 | 97 | 271 | 1.0 | 8.0 | 0.00 | 0.00 | 0.00 | 48 | 1012.2 |
| 20260905182012 | 97 | 360 | 2.0 | 8.0 | 0.00 | 0.00 | 0.00 | 47 | 1012.2 |
| 20260905181528 | 97 | 267 | 2.0 | 6.0 | 0.00 | 0.00 | 0.00 | 47 | 1012.3 |
| 20260905181015 | 98 | 9 | 1.0 | 5.0 | 0.00 | 0.00 | 0.00 | 47 | 1012.3 |
| 20260905180504 | 98 | 14 | 1.0 | 4.0 | 0.00 | 0.00 | 0.00 | 46 | 1012.3 |
| 20260905180003 | 97 | 321 | 0.0 | 6.0 | 0.00 | 0.00 | 0.00 | 50 | 1012.4 |
| 20260905175504 | 97 | 306 | 0.0 | 6.0 | 0.00 | 0.00 | 0.00 | 50 | 1012.5 |
| 20260905175008 | 96 | 123 | 1.0 | 3.0 | 0.00 | 0.00 | 0.00 | 52 | 1012.6 |
| 20260905174518 | 96 | 150 | 0.0 | 3.0 | 0.00 | 0.00 | 0.00 | 53 | 1012.5 |
| 20260905174011 | 95 | 174 | 0.0 | 3.0 | 0.00 | 0.00 | 0.00 | 50 | 1012.6 |
| 20260905173511 | 95 | 245 | 1.0 | 3.0 | 0.00 | 0.00 | 0.00 | 51 | 1012.7 |
| 20260905173016 | 95 | 153 | 0.0 | 3.0 | 0.00 | 0.00 | 0.00 | 52 | 1012.7 |
| 20260905172512 | 95 | 311 | 1.0 | 6.0 | 0.00 | 0.00 | 0.00 | 50 | 1012.8 |
| 20260905172012 | 95 | 97 | 1.0 | 6.0 | 0.00 | 0.00 | 0.00 | 53 | 1013.0 |
| 20260905171527 | 94 | 183 | 3.0 | 6.0 | 0.00 | 0.00 | 0.00 | 53 | 1013.2 |
| 20260905171011 | 95 | 352 | 1.0 | 4.0 | 0.00 | 0.00 | 0.00 | 56 | 1013.3 |
| 20260905170516 | 94 | 118 | 0.0 | 3.0 | 0.00 | 0.00 | 0.00 | 54 | 1013.3 |
| 20260905170026 | 94 | 177 | 1.0 | 4.0 | 0.00 | 0.00 | 0.00 | 53 | 1013.4 |
| 20260905165507 | 94 | 244 | 2.0 | 4.0 | 0.00 | 0.00 | 0.00 | 54 | 1013.4 |
| 20260905165008 | 93 | 262 | 1.0 | 4.0 | 0.00 | 0.00 | 0.00 | 55 | 1013.4 |
| 20260905164507 | 93 | 133 | 2.0 | 4.0 | 0.00 | 0.00 | 0.00 | 55 | 1013.5 |
| 20260905164004 | 92 | 190 | 1.0 | 6.0 | 0.00 | 0.00 | 0.00 | 56 | 1013.5 |
| 20260905163508 | 92 | 198 | 0.0 | 7.0 | 0.00 | 0.00 | 0.00 | 57 | 1013.5 |
| 20260905163012 | 92 | 173 | 1.0 | 7.0 | 0.00 | 0.00 | 0.00 | 57 | 1013.6 |
| 20260905162507 | 91 | 171 | 3.0 | 7.0 | 0.00 | 0.00 | 0.00 | 58 | 1013.5 |
| 20260905162013 | 91 | 202 | 4.0 | 7.0 | 0.00 | 0.00 | 0.00 | 58 | 1013.5 |
| 20260905161534 | 92 | 101 | 3.0 | 5.0 | 0.00 | 0.00 | 0.00 | 59 | 1013.6 |
| 20260905161012 | 92 | 139 | 2.0 | 4.0 | 0.00 | 0.00 | 0.00 | 60 | 1013.6 |
| 20260905160511 | 91 | 139 | 1.0 | 5.0 | 0.00 | 0.00 | 0.00 | 59 | 1013.6 |
| 20260905160028 | 92 | 48 | 1.0 | 5.0 | 0.00 | 0.00 | 0.00 | 59 | 1013.7 |
| 20260905155514 | 91 | 348 | 0.0 | 2.0 | 0.00 | 0.00 | 0.00 | 58 | 1013.9 |
| 20260905155013 | 90 | 63 | 0.0 | 3.0 | 0.00 | 0.00 | 0.00 | 60 | 1014.0 |
| 20260905154504 | 91 | 175 | 0.0 | 4.0 | 0.00 | 0.00 | 0.00 | 62 | 1014.0 |
| 20260905154009 | 91 | 39 | 0.0 | 6.0 | 0.00 | 0.00 | 0.00 | 60 | 1013.9 |
| 20260905153507 | 90 | 182 | 2.0 | 6.0 | 0.00 | 0.00 | 0.00 | 61 | 1013.9 |
| 20260905153014 | 91 | 343 | 1.0 | 4.0 | 0.00 | 0.00 | 0.00 | 61 | 1013.9 |
| 20260905152510 | 90 | 36 | 2.0 | 4.0 | 0.00 | 0.00 | 0.00 | 62 | 1013.9 |
| 20260905152007 | 90 | 44 | 1.0 | 3.0 | 0.00 | 0.00 | 0.00 | 62 | 1014.0 |
| 20260905151519 | 89 | 352 | 0.0 | 2.0 | 0.00 | 0.00 | 0.00 | 64 | 1014.0 |
| 20260905151012 | 90 | 160 | 0.0 | 3.0 | 0.00 | 0.00 | 0.00 | 64 | 1013.8 |
| 20260905150511 | 90 | 126 | 0.0 | 4.0 | 0.00 | 0.00 | 0.00 | 63 | 1013.8 |
| 20260905150037 | 89 | 126 | 2.0 | 4.0 | 0.00 | 0.00 | 0.00 | 65 | 1013.8 |
| 20260905145513 | 89 | 66 | 2.0 | 3.0 | 0.00 | 0.00 | 0.00 | 63 | 1013.9 |
| 20260905145014 | 89 | 41 | 0.0 | 4.0 | 0.00 | 0.00 | 0.00 | 64 | 1014.0 |
| 20260905144533 | 88 | 267 | 1.0 | 5.0 | 0.00 | 0.00 | 0.00 | 63 | 1013.9 |
| 20260905144017 | 88 | 349 | 0.0 | 5.0 | 0.00 | 0.00 | 0.00 | 64 | 1013.9 |
| 20260905143504 | 87 | 33 | 0.0 | 4.0 | 0.00 | 0.00 | 0.00 | 65 | 1014.1 |
| 20260905143008 | 87 | 341 | 0.0 | 2.0 | 0.00 | 0.00 | 0.00 | 65 | 1014.0 |
| 20260905142510 | 87 | 5 | 1.0 | 2.0 | 0.00 | 0.00 | 0.00 | 65 | 1013.8 |
| 20260905142013 | 88 | 223 | 0.0 | 3.0 | 0.00 | 0.00 | 0.00 | 66 | 1013.8 |
| 20260905141512 | 87 | 352 | 1.0 | 3.0 | 0.00 | 0.00 | 0.00 | 66 | 1013.9 |
| 20260905141010 | 87 | 5 | 1.0 | 3.0 | 0.00 | 0.00 | 0.00 | 66 | 1013.7 |
| 20260905140512 | 86 | 329 | 1.0 | 3.0 | 0.00 | 0.00 | 0.00 | 65 | 1013.7 |
| 20260905140023 | 86 | 346 | 1.0 | 6.0 | 0.00 | 0.00 | 0.00 | 66 | 1013.7 |
| 20260905135512 | 86 | 352 | 1.0 | 6.0 | 0.00 | 0.00 | 0.00 | 68 | 1013.6 |
| 20260905135014 | 85 | 200 | 0.0 | 3.0 | 0.00 | 0.00 | 0.00 | 70 | 1013.6 |
| 20260905134529 | 84 | 206 | 0.0 | 3.0 | 0.00 | 0.00 | 0.00 | 71 | 1013.7 |
| 20260905134016 | 84 | 169 | 0.0 | 2.0 | 0.00 | 0.00 | 0.00 | 72 | 1013.8 |
| 20260905133514 | 84 | 202 | 0.0 | 2.0 | 0.00 | 0.00 | 0.00 | 73 | 1013.8 |
| 20260905133030 | 83 | 184 | 1.0 | 2.0 | 0.00 | 0.00 | 0.00 | 74 | 1013.9 |
| 20260905132507 | 82 | 210 | 1.0 | 3.0 | 0.00 | 0.00 | 0.00 | 76 | 1013.8 |
| 20260905132008 | 82 | 161 | 1.0 | 3.0 | 0.00 | 0.00 | 0.00 | 76 | 1013.8 |
| 20260905131529 | 82 | 173 | 2.0 | 3.0 | 0.00 | 0.00 | 0.00 | 74 | 1013.8 |
| 20260905131010 | 82 | 185 | 1.0 | 3.0 | 0.00 | 0.00 | 0.00 | 75 | 1013.9 |
| 20260905130509 | 82 | 196 | 0.0 | 0.0 | 0.00 | 0.00 | 0.00 | 77 | 1013.9 |
| 20260905130019 | 81 | 225 | 0.0 | 2.0 | 0.00 | 0.00 | 0.00 | 77 | 1013.9 |
| 20260905125512 | 80 | 165 | 0.0 | 2.0 | 0.00 | 0.00 | 0.00 | 77 | 1014.0 |
| 20260905125014 | 80 | 178 | 0.0 | 2.0 | 0.00 | 0.00 | 0.00 | 77 | 1014.0 |
| 20260905124526 | 80 | 147 | 0.0 | 2.0 | 0.00 | 0.00 | 0.00 | 78 | 1014.0 |
| 20260905124015 | 80 | 153 | 0.0 | 2.0 | 0.00 | 0.00 | 0.00 | 78 | 1013.9 |
| 20260905123513 | 80 | 153 | 0.0 | 1.0 | 0.00 | 0.00 | 0.00 | 78 | 1013.8 |
| 20260905123038 | 80 | 240 | 0.0 | 0.0 | 0.00 | 0.00 | 0.00 | 77 | 1013.9 |
| 20260905122518 | 80 | 240 | 0.0 | 0.0 | 0.00 | 0.00 | 0.00 | 77 | 1014.0 |
| 20260905122016 | 80 | 240 | 0.0 | 0.0 | 0.00 | 0.00 | 0.00 | 77 | 1014.0 |
| 20260905121537 | 79 | 254 | 0.0 | 0.0 | 0.00 | 0.00 | 0.00 | 77 | 1013.8 |
| 20260905121019 | 0 | 0.0 | 0.0 | 0.00 | 0.00 | 0.00 | 1013.8 | ||
| 20260905120520 | 0 | 0.0 | 0.0 | 0.00 | 0.00 | 0.00 | 1013.7 | ||
| 20260905120048 | 0 | 0.0 | 0.0 | 0.00 | 0.00 | 0.00 | 1013.7 | ||
| 20260905115519 | 0 | 0.0 | 0.0 | 0.00 | 0.00 | 0.00 | 1013.8 | ||
| 20260905115018 | 0 | 0.0 | 0.0 | 0.00 | 0.00 | 0.00 | 1013.7 | ||
| 20260905114535 | 0 | 0.0 | 0.0 | 0.00 | 0.00 | 0.00 | 1013.6 | ||
| 20260905114018 | 0 | 0.0 | 0.0 | 0.00 | 0.00 | 0.00 | 1013.5 | ||
| 20260905113519 | 0 | 0.0 | 0.0 | 0.00 | 0.00 | 0.00 | 1013.5 | ||
| 20260905113037 | 0 | 0.0 | 0.0 | 0.00 | 0.00 | 0.00 | 1013.4 | ||
| 20260905112520 | 0 | 0.0 | 0.0 | 0.00 | 0.00 | 0.00 | 1013.4 | ||
| 20260905112021 | 0 | 0.0 | 0.0 | 0.00 | 0.00 | 0.00 | 1013.4 | ||
| 20260905111545 | 0 | 0.0 | 0.0 | 0.00 | 0.00 | 0.00 | 1013.3 | ||
| 20260905111019 | 0 | 0.0 | 0.0 | 0.00 | 0.00 | 0.00 | 1013.3 | ||
| 20260905110518 | 0 | 0.0 | 0.0 | 0.00 | 0.00 | 0.00 | 1013.1 | ||
| 20260905110039 | 0 | 0.0 | 0.0 | 0.00 | 0.00 | 0.00 | 1013.1 | ||
| 20260905105521 | 0 | 0.0 | 0.0 | 0.00 | 0.00 | 0.00 | 1013.1 | ||
| 20260905105021 | 0 | 0.0 | 0.0 | 0.00 | 0.00 | 0.00 | 1013.0 | ||
| 20260905104551 | 0 | 0.0 | 0.0 | 0.00 | 0.00 | 0.00 | 1013.1 | ||
| 20260905104019 | 0 | 0.0 | 0.0 | 0.00 | 0.00 | 0.00 | 1013.0 | ||
| 20260905103518 | 0 | 0.0 | 0.0 | 0.00 | 0.00 | 0.00 | 1013.0 | ||
| 20260905103039 | 0 | 0.0 | 0.0 | 0.00 | 0.00 | 0.00 | 1013.1 |